Ames, IA

10:10 PM CDT on April 23, 2018 (GMT -0500)
Ames Municipal

Weather History for KAMW - August, 2014

Change the Weather History Date:

Friday, August 22, 2014

  Actual Average Record
Temperature  
Mean Temperature 79 °F 70 °F  
Max Temperature 88 °F 81 °F 93 °F (2012)
Min Temperature 70 °F 59 °F 48 °F (1997)
Degree Days  
Heating Degree Days 0 0  
Month to date heating degree days 0 0  
Since 1 June heating degree days 16 28  
Since 1 July heating degree days 12 4  
Cooling Degree Days 14 6  
Month to date cooling degree days 137 156  
Year to date cooling degree days 518 642  
Since 1 June cooling degree days 441 593  
Growing Degree Days 30 (Base 50)    
Moisture  
Dew Point 75 °F    
Average Humidity 84    
Maximum Humidity 100    
Minimum Humidity 68    
Precipitation  
Precipitation 0.02 in 0.14 in 1.87 in (1978)
Month to date precipitation 2.17 3.13  
Sea Level Pressure  
Sea Level Pressure 29.90 in    
Wind  
Wind Speed 3 mph (South)    
Max Wind Speed 21 mph    
Max Gust Speed 27 mph    
Visibility 7 miles    
Events Rain , Thunderstorm    
T = Trace of Precipitation, MM = Missing Value Source: NWS Daily Summary

Daily Weather History Graph

Daily Weather History Graph

Search for Another Location

Airport or City:

Astronomy

Aug. 22, 2014 Rise Set
Actual Time 6:29 AM CDT 8:04 PM CDT
Civil Twilight 6:00 AM CDT 8:33 PM CDT
Nautical Twilight 5:24 AM CDT 9:09 PM CDT
Astronomical Twilight 4:46 AM CDT 9:46 PM CDT
Moon 3:51 AM CDT (8/22) 6:13 PM CDT (8/22)
Length of Visible Light 14h 33m
Length of Day
13h 34m
Waning Crescent, 7% of the Moon is Illuminated
Aug 22
Waning Crescent
Aug 25
New
Sep 2
First Quarter
Sep 8
Full
Sep 15
Last Quarter

Hourly Weather History & Observations

Time (CDT) Temp. Heat Index Dew Point Humidity Pressure Visibility Wind Dir Wind Speed Gust Speed Precip Events Conditions
12:53 AM 73.0 °F - 73.0 °F 100% 29.82 in 5.0 mi Calm Calm - N/A   Clear
1:48 AM 73.4 °F - 71.6 °F 94% 29.85 in 2.0 mi Calm Calm - N/A   Clear
1:53 AM 73.0 °F - 72.0 °F 96% 29.83 in 3.0 mi Calm Calm - N/A   Clear
2:53 AM 73.9 °F - 73.0 °F 97% 29.84 in 6.0 mi Calm Calm - N/A   Partly Cloudy
3:17 AM 75.0 °F - 73.9 °F 96% 29.90 in 5.0 mi SW 9.2 mph - N/A Thunderstorm Mostly Cloudy
3:25 AM 77.0 °F - 75.0 °F 94% 29.90 in 8.0 mi WSW 13.8 mph - N/A Thunderstorm Thunderstorm
4:16 AM 73.0 °F - 71.1 °F 93% 29.87 in 10.0 mi Calm Calm - 0.01 in Rain Light Rain
4:53 AM 72.0 °F - 71.1 °F 97% 29.82 in 10.0 mi Calm Calm - 0.02 in   Mostly Cloudy
5:53 AM 72.0 °F - 71.1 °F 97% 29.84 in 10.0 mi South 4.6 mph - N/A   Clear
7:53 AM 72.0 °F - 71.1 °F 97% 29.89 in 10.0 mi Calm Calm - N/A   Clear
8:53 AM 75.0 °F - 73.0 °F 94% 29.90 in 10.0 mi SE 3.5 mph - N/A   Scattered Clouds
9:53 AM 79.0 °F - 73.0 °F 82% 29.90 in 10.0 mi South 6.9 mph - N/A   Clear
11:53 AM 84.0 °F 91.2 °F 73.9 °F 72% 29.91 in 10.0 mi Calm Calm - N/A   Partly Cloudy
12:15 PM 84.0 °F 91.9 °F 75.0 °F 74% 29.94 in 10.0 mi SSW 8.1 mph - N/A   Mostly Cloudy
12:53 PM 84.9 °F 94.1 °F 75.9 °F 74% 29.91 in 10.0 mi SW 4.6 mph - N/A   Scattered Clouds
1:53 PM 86.0 °F 96.0 °F 75.9 °F 72% 29.89 in 10.0 mi SSE 3.5 mph - N/A   Clear
2:53 PM 87.1 °F 97.3 °F 75.9 °F 69% 29.89 in 10.0 mi Calm Calm - N/A   Mostly Cloudy
4:53 PM 84.0 °F 93.7 °F 77.0 °F 79% 29.88 in 10.0 mi South 6.9 mph - N/A   Clear
5:53 PM 84.0 °F 93.7 °F 77.0 °F 79% 29.89 in 10.0 mi SE 3.5 mph - N/A   Mostly Cloudy
6:53 PM 82.0 °F 90.2 °F 77.0 °F 85% 29.90 in 10.0 mi Calm Calm - N/A   Mostly Cloudy
7:53 PM 81.0 °F 87.9 °F 77.0 °F 88% 29.90 in 5.0 mi Calm Calm - N/A   Mostly Cloudy
8:18 PM 79.0 °F - 77.0 °F 94% 29.95 in 5.0 mi Calm Calm - N/A Thunderstorm Partly Cloudy
8:43 PM 80.1 °F 85.8 °F 77.0 °F 90% 29.96 in 5.0 mi Calm Calm - N/A   Partly Cloudy
8:53 PM 79.0 °F - 77.0 °F 94% 29.93 in 5.0 mi Calm Calm - N/A   Scattered Clouds
9:07 PM 79.0 °F - 77.0 °F 94% 29.96 in 5.0 mi NNW 3.5 mph - N/A Thunderstorm Mostly Cloudy
9:24 PM 78.1 °F - 77.0 °F 96% 29.95 in 5.0 mi SE 4.6 mph - N/A   Overcast
9:33 PM 79.0 °F - 75.9 °F 90% 29.94 in 5.0 mi ENE 3.5 mph - N/A   Mostly Cloudy
9:53 PM 79.0 °F - 77.0 °F 94% 29.90 in 5.0 mi Calm Calm - 0.00 in Rain Light Rain
10:10 PM 79.0 °F - 77.0 °F 94% 29.94 in 4.0 mi Calm Calm - 0.00 in Rain Light Rain
10:33 PM 77.0 °F - 75.9 °F 96% 29.94 in 4.0 mi North 4.6 mph - 0.00 in   Scattered Clouds
10:43 PM 78.1 °F - 75.9 °F 93% 29.94 in 5.0 mi NNE 6.9 mph - 0.00 in   Mostly Cloudy
10:53 PM 78.1 °F - 75.9 °F 93% 29.91 in 5.0 mi NNE 6.9 mph - 0.00 in   Mostly Cloudy
11:41 PM 77.0 °F - 75.9 °F 96% 29.95 in 4.0 mi Calm Calm - N/A   Scattered Clouds
11:53 PM 77.0 °F - 75.0 °F 94% 29.92 in 5.0 mi NW 3.5 mph - N/A   Mostly Cloudy